Regional Weather Roundup
Issued by NWS

Home | Current Version | Previous Version | Graphics & Text | Print | Product List | Glossary On
Versions: 1 2 3 4 5 6 7 8 9 10 11 12 13 14 15 16 17 18 19 20 21 22 23 24 25 26 27 28 29 30 31 32 33 34 35 36 37 38 39 40 41 42 43 44 45 46 47 48 49 50
000
ASUS45 KBOI 250910
RWRID

IDAHO REGIONAL WEATHER ROUNDUP
NATIONAL WEATHER SERVICE BOISE ID
300 AM MDT TUE APR 25 2017

NOTE: "FAIR" INDICATES FEW OR NO CLOUDS BELOW 12000 FEET
WITH NO SIGNIFICANT WEATHER AND/OR OBSTRUCTIONS TO VISIBILITY

IDZ012-014-251000-
SOUTHWEST IDAHO


CITY           SKY/WX    TMP DP  RH WIND       PRES   REMARKS
BOISE          CLOUDY    44  40  85 NW9       29.82R
CALDWELL       CLOUDY    45  38  76 W14       29.84R
MOUNTAIN HOME  CLOUDY    43  43 100 NW16      29.81R
$$

IDZ016-017-251000-
SOUTHCENTRAL IDAHO


CITY           SKY/WX    TMP DP  RH WIND       PRES   REMARKS
BURLEY         CLOUDY    40  34  79 W18G25    29.74S WCI  31
JEROME         MOCLDY    39  36  89 SW15      29.77R WCI  31
TWIN FALLS     CLOUDY    39  37  92 SW14      29.78R WCI  31
$$

IDZ019>023-251000-
SOUTHEAST IDAHO


CITY           SKY/WX    TMP DP  RH WIND       PRES   REMARKS
IDAHO FALLS    CLOUDY    39  37  92 SW16      29.69S WCI  30
POCATELLO      CLOUDY    40  37  89 SW18      29.73S WCI  31
REXBURG        CLOUDY    37  36  96 SW13      29.66S WCI  29
$$

IDZ006-010-011-018-031-032-251000-
CENTRAL IDAHO MOUNTAINS


CITY           SKY/WX    TMP DP  RH WIND       PRES   REMARKS
MCCALL         FLURRIES  33  31  92 W3        29.76R
HAILEY         MOCLDY    32  28  86 NW6       29.71F WCI  26
STANLEY          N/A     32  31  96 NW3       29.74S
SALMON         CLOUDY    36  34  93 CALM      29.73R
CHALLIS        CLOUDY    39  32  76 N6        29.71S WCI  35
$$

IDZ002-004-006-007-026-251000-
NORTHERN IDAHO


CITY           SKY/WX    TMP DP  RH WIND       PRES   REMARKS
LEWISTON       LGT RAIN  47  43  86 W6        29.83R
LOWELL           N/A     46  43  89 CALM      29.82R
COEUR D`ALENE  CLOUDY    42  40  92 S6        29.80R
MULLAN PASS    FOG       30  30 100 NW6       29.75R VSB 1   WCI  24
$$



USA.gov is the U.S. government's official web portal to all federal, state and local government web resources and services.